www.pogodaiklimat.ru

Погода и климат >> Архив погоды >> Австралия >> Centre Island


ПОГОДА в Centre Island

  • Прогноз погоды в Centre Island
  • Монитор погоды в Centre Island
  • Климат города

АРХИВ ПОГОДЫ в Centre Island

Время (UTC), дата Ветер
(напр.,м/с)
 
Видим.   Явления Облачность Т
(С)
Тd
(С)
f
(%)
Тe
(С)
Тes
(С)
Комфортность P
(гПа)
Po
(гПа)
Тmin
(С)
Tmax
(С)
R
(мм)
R24
(мм)
S
(см)
05 8.08 В 3 н/о н/о +26.1 +4.6 25 +25 +25 комфорт 1014.1 1012.6
06 8.08 СВ 3 н/о н/о +25.9 +8.0 32 +26 +26 жарко 1013.5 1012.0
08 8.08 В 6 н/о н/о +23.8 +10.5 43 +25 +25 комфорт 1013.6 1012.1
09 8.08 В 6 н/о н/о +22.4 +10.2 46 +24 +24 комфорт 1014.2 1012.7
11 8.08 В 5 н/о н/о +21.6 +12.7 57 +24 +24 комфорт 1015.7 1014.2
12 8.08 В 6 н/о н/о +21.8 +13.4 59 +25 +25 комфорт 1016.1 1014.6
14 8.08 В 5 н/о н/о +21.5 +14.9 66 +25 +25 комфорт 1015.9 1014.4
15 8.08 В 5 н/о н/о +21.5 +15.1 67 +25 +25 комфорт 1015.7 1014.2
17 8.08 ЮВ 8 н/о н/о +20.0 +12.5 62 +21 +21 комфорт 1015.5 1014.0
18 8.08 ЮВ 10 н/о н/о +20.2 +8.2 46 +21 +21 комфорт 1015.4 1013.9
20 8.08 ЮВ 10 н/о н/о +19.6 +6.7 43 +19 +19 1015.9 1014.4
21 8.08 ЮВ 9 н/о н/о +18.9 +7.0 46 +18 +18 1016.7 1015.2
23 8.08 ЮВ 8 н/о н/о +20.1 +5.4 38 +20 +20 1017.8 1016.3
00 9.08 ЮВ 9 н/о н/о +21.2 +5.1 35 +22 +22 комфорт 1018.4 1016.9
02 9.08 ЮВ 10 н/о н/о +24.4 +8.0 35 +25 +25 комфорт 1017.4 1015.9
03 9.08 В 8 н/о н/о +25.3 +7.9 33 +25 +25 комфорт 1016.3 1014.8
05 9.08 В 5 н/о н/о +27.5 +9.3 32 +28 +28 жарко 1014.5 1013.0
06 9.08 В 4 н/о н/о +27.2 +10.4 35 +28 +28 жарко 1013.8 1012.3
08 9.08 ЮВ 2 н/о н/о +25.4 +12.9 46 +27 +27 жарко 1013.7 1012.2
09 9.08 В 5 н/о н/о +24.0 +11.0 44 +25 +25 комфорт 1014.0 1012.5
11 9.08 СВ 4 н/о н/о +22.8 +14.4 59 +26 +26 жарко 1015.3 1013.8
12 9.08 СВ 4 н/о н/о +22.4 +16.2 68 +27 +27 душно 1015.5 1014.0
14 9.08 СВ 4 н/о н/о +21.9 +17.9 78 +27 +27 душно 1015.5 1014.0
15 9.08 С 3 н/о н/о +20.6 +17.4 82 +25 +25 комфорт 1015.3 1013.8
17 9.08 С 3 н/о н/о +20.2 +17.6 85 +24 +24 комфорт 1014.9 1013.4
18 9.08 Ю 4 н/о н/о +19.2 +16.8 86 +21 +21 комфорт 1014.7 1013.2
20 9.08 Ю 4 н/о н/о +18.8 +16.4 86 +20 +20 1015.1 1013.6
21 9.08 Ю 3 н/о н/о +18.5 +15.9 85 +19 +19 1015.5 1014.0
23 9.08 Ю 3 н/о н/о +20.8 +14.0 65 +24 +24 комфорт 1016.6 1015.1
00 10.08 ЮЗ 4 н/о н/о +22.2 +14.6 62 +26 +26 душно 1016.9 1015.4
02 10.08 В 5 н/о н/о +26.1 +15.8 53 +29 +29 жарко 1016.0 1014.5
03 10.08 В 7 н/о н/о +27.6 +12.4 39 +29 +29 жарко 1015.0 1013.5
05 10.08 В 4 н/о н/о +28.6 +12.5 37 +30 +30 жарко 1012.9 1011.4
06 10.08 СВ 3 н/о н/о +27.9 +14.5 44 +30 +30 жарко 1012.1 1010.6
08 10.08 СВ 6 н/о н/о +24.5 +17.2 64 +28 +28 душно 1012.3 1010.8
09 10.08 СВ 6 н/о н/о +23.5 +18.2 72 +28 +28 душно 1012.3 1010.8
11 10.08 С 6 н/о н/о +23.1 +19.5 80 +30 +30 очень
душно
1013.3 1011.8
12 10.08 С 5 н/о н/о +23.1 +18.8 77 +29 +29 очень
душно
1013.7 1012.2
14 10.08 С 3 н/о н/о +22.5 +18.3 77 +28 +28 душно 1013.9 1012.4
15 10.08 С 4 н/о н/о +22.4 +19.4 83 +28 +28 душно 1013.6 1012.1
17 10.08 З 3 н/о н/о +20.9 +18.7 87 +26 +26 душно 1013.6 1012.1
18 10.08 штиль 0 н/о н/о +20.7 +19.0 90 +25 +25 комфорт 1013.3 1011.8
20 10.08 З 1 н/о н/о +20.3 +19.5 95 +26 +26 душно 1013.3 1011.8
21 10.08 З 3 н/о н/о +20.2 +18.9 92 +24 +24 комфорт 1014.2 1012.7
23 10.08 ЮЗ 3 н/о н/о +21.4 +18.0 81 +26 +26 душно 1015.6 1014.1
00 11.08 ЮЗ 2 н/о н/о +22.6 +18.4 77 +28 +28 душно 1016.2 1014.7
02 11.08 Ю 3 н/о н/о +24.8 +19.4 72 +30 +30 душно 1015.5 1014.0
03 11.08 В 3 н/о н/о +26.2 +20.5 71 +33 +33 очень
душно
1014.4 1012.9
05 11.08 С 4 н/о н/о +29.9 +18.7 51 +35 +35 очень
душно
1012.5 1011.0
06 11.08 С 5 н/о н/о +28.7 +19.3 57 +34 +34 очень
душно
1011.8 1010.3
08 11.08 С 5 н/о н/о +26.9 +18.2 59 +32 +32 очень
душно
1012.1 1010.6
09 11.08 С 4 н/о н/о +25.1 +20.4 75 +31 +31 очень
душно
1012.6 1011.1
11 11.08 С 4 н/о н/о +23.5 +21.8 90 +30 +30 очень
душно
1013.9 1012.4
12 11.08 С 5 н/о н/о +23.4 +22.0 92 +32 +32 очень
душно
1014.1 1012.6
14 11.08 ЮВ 6 н/о н/о +23.5 +21.6 89 +30 +30 очень
душно
1015.2 1013.7
15 11.08 ЮВ 4 н/о н/о +23.1 +21.4 90 +31 +31 очень
душно
1015.2 1013.7
17 11.08 ЮВ 5 н/о н/о +22.7 +21.2 91 +30 +30 очень
душно
1014.7 1013.2
18 11.08 Ю 9 н/о н/о +22.2 +16.7 71 +27 +27 душно 1014.8 1013.3
20 11.08 Ю 11 н/о н/о +21.5 +7.0 39 +22 +22 комфорт 1016.3 1014.8
21 11.08 Ю 11 н/о н/о +21.0 +5.8 37 +21 +21 комфорт 1017.1 1015.6
23 11.08 Ю 10 н/о н/о +21.2 +5.9 37 +22 +22 комфорт 1019.1 1017.6
00 12.08 Ю 10 н/о н/о +21.9 +5.3 34 +22 +22 комфорт 1019.8 1018.3
02 12.08 ЮВ 9 н/о н/о +24.7 +5.0 28 +24 +24 комфорт 1019.2 1017.7
03 12.08 ЮВ 8 н/о н/о +25.1 +4.8 27 +25 +25 комфорт 1018.1 1016.6
05 12.08 В 5 н/о н/о +26.7 +8.2 31 +27 +27 жарко 1016.6 1015.1
06 12.08 В 6 н/о н/о +26.4 +9.7 35 +27 +27 жарко 1015.9 1014.4
08 12.08 В 4 н/о н/о +24.4 +11.0 43 +26 +26 жарко 1016.3 1014.8
09 12.08 В 6 н/о н/о +23.1 +12.4 51 +26 +26 жарко 1016.9 1015.4
11 12.08 В 7 н/о н/о +22.6 +14.7 61 +26 +26 жарко 1018.2 1016.7
12 12.08 ЮВ 6 н/о н/о +22.5 +16.8 70 +27 +27 душно 1018.3 1016.8
14 12.08 ЮВ 7 н/о н/о +22.2 +10.7 48 +24 +24 комфорт 1018.3 1016.8
15 12.08 Ю 10 н/о н/о +21.4 +9.6 47 +23 +23 комфорт 1018.3 1016.8
17 12.08 Ю 10 н/о н/о +20.3 +6.3 40 +20 +20 1018.1 1016.6
18 12.08 Ю 10 н/о н/о +19.8 +6.2 41 +20 +20 1018.0 1016.5
20 12.08 Ю 9 н/о н/о +18.8 +3.0 35 +18 +18 1018.7 1017.2
21 12.08 Ю 9 н/о н/о +18.6 +2.4 34 +18 +18 1019.6 1018.1
23 12.08 ЮВ 9 н/о н/о +19.3 +2.2 32 +19 +19 1020.8 1019.3
00 13.08 ЮВ 9 н/о н/о +20.7 +2.5 30 +21 +21 комфорт 1021.2 1019.7
02 13.08 В 8 н/о н/о +23.5 +6.3 33 +24 +24 комфорт 1020.5 1019.0
03 13.08 В 8 н/о н/о +24.6 +5.9 30 +24 +24 комфорт 1019.5 1018.0
05 13.08 В 6 н/о н/о +26.0 +7.1 30 +26 +26 жарко 1017.5 1016.0
06 13.08 В 6 н/о н/о +25.4 +7.5 32 +25 +25 комфорт 1017.0 1015.5
08 13.08 В 6 н/о н/о +24.0 +8.0 36 +24 +24 комфорт 1017.2 1015.7
09 13.08 В 5 н/о н/о +22.9 +10.3 45 +25 +25 комфорт 1017.7 1016.2
11 13.08 В 7 н/о н/о +22.5 +12.2 52 +25 +25 комфорт 1018.8 1017.3
12 13.08 ЮВ 7 н/о н/о +22.4 +14.0 59 +26 +26 жарко 1019.2 1017.7
14 13.08 ЮВ 9 н/о н/о +21.5 +7.7 41 +22 +22 комфорт 1019.3 1017.8
15 13.08 ЮВ 9 н/о н/о +20.8 +7.8 43 +22 +22 комфорт 1019.2 1017.7
17 13.08 ЮВ 11 н/о н/о +19.7 +6.4 42 +19 +19 1018.6 1017.1
18 13.08 ЮВ 9 н/о н/о +19.1 +6.9 45 +19 +19 1018.5 1017.0
20 13.08 ЮВ 6 н/о н/о +18.2 +5.8 44 +18 +18 1018.9 1017.4
21 13.08 ЮВ 6 н/о н/о +18.3 +3.4 37 +18 +18 1019.5 1018.0
23 13.08 ЮВ 9 н/о н/о +19.4 +2.3 32 +19 +19 1020.1 1018.6
00 14.08 В 15 н/о н/о +21.5 +5.0 34 +22 +22 комфорт 1020.6 1019.1
02 14.08 ЮВ 11 н/о н/о +22.9 +7.1 36 +24 +24 комфорт 1019.7 1018.2
03 14.08 В 7 н/о н/о +25.2 +8.7 35 +26 +26 жарко 1019.0 1017.5
05 14.08 ЮВ 7 н/о н/о +26.3 +11.6 40 +28 +28 жарко 1016.5 1015.0
06 14.08 В 6 н/о н/о +26.1 +13.6 46 +28 +28 жарко 1016.1 1014.6
08 14.08 В 7 н/о н/о +24.1 +12.1 47 +26 +26 жарко 1015.9 1014.4
09 14.08 В 6 н/о н/о +23.1 +12.4 51 +26 +26 жарко 1016.2 1014.7
11 14.08 В 5 н/о н/о +21.8 +13.4 59 +25 +25 комфорт 1017.2 1015.7
12 14.08 В 5 н/о н/о +21.2 +16.4 74 +25 +25 комфорт 1017.5 1016.0
14 14.08 В 3 н/о н/о +20.4 +17.8 85 +24 +24 комфорт 1017.7 1016.2
15 14.08 В 1 н/о н/о +19.7 +17.3 86 +24 +24 комфорт 1017.1 1015.6
17 14.08 Ю 2 н/о н/о +19.7 +18.4 92 +23 +23 комфорт 1016.4 1014.9
18 14.08 Ю 3 н/о н/о +18.8 +17.5 92 +20 +20 1015.9 1014.4
20 14.08 Ю 4 н/о н/о +18.4 +17.2 93 +19 +19 1015.8 1014.3
21 14.08 Ю 4 н/о н/о +17.5 +15.0 85 +17 +17 1016.3 1014.8
23 14.08 Ю 4 н/о н/о +21.1 +12.8 59 +23 +23 комфорт 1017.2 1015.7
00 15.08 ЮВ 4 н/о н/о +22.5 +10.9 48 +25 +25 комфорт 1017.8 1016.3
02 15.08 В 8 н/о н/о +26.2 +8.2 32 +26 +26 жарко 1017.2 1015.7
03 15.08 В 8 н/о н/о +26.6 +9.9 35 +27 +27 жарко 1016.3 1014.8

 

Местоположение метеостанции Centre Island (Северная территория, Австралия): широта -15.75 долгота 136.80 высота над уровнем моря 13 м.

В архиве по умолчанию представлена погода в Centre Island за последнюю неделю. Архивные данные за месяц целиком и за предыдущие месяцы, начиная с января 2011 года, Вы можете получить, выбрав интересующий диапазон дат из раскрывающегося списка и нажав кнопку "Ввод!".


*Определитесь, кто Вы:
робот инопланетянин человек

Внимание! Время в таблицах - всемирное. Для получения местного времени необходимо прибавить поправку, которая в Centre Island равна 9.5 ч.

Смотрите также архив погоды в соседних городах и на ближайших метеорологических станциях:

Погода в Borroloola (Северная территория, Австралия) (65 км)
Погода в Mcarthur River Mine (Северная территория, Австралия) (109 км)
Погода в Groote Eylandt Airport (Северная территория, Австралия) (200 км)
Погода в North East Island (Северная территория, Австралия) (234 км)
Погода в Mornington Island (Квинсленд, Австралия) (273 км)
Погода в Bulman Aws (Северная территория, Австралия) (352 км)
Погода в Burketown Airport (Квинсленд, Австралия) (366 км)
Погода в Daly Waters Aws (Северная территория, Австралия) (371 км)
Погода в Gove Airport (Северная территория, Австралия) (386 км)
Погода в Century Mine (Квинсленд, Австралия) (390 км)

Пояснения к столбцам:

Ветер - указаны скорость ветра в м/с - средняя за 10 мин, порывы в срок и между сроками (в фигурных скобках) и направление, откуда дует ветер: С - северный, СВ - северо-восточный, В - восточный, ЮВ - юго-восточный, Ю - южный, ЮЗ - юго-западный, З - западный, СЗ - северо-западный.
Видимость - горизонтальная дальность видимости в метрах или километрах. При видимости от 1 до 10 км при отсутствии осадков обычно наблюдается дымка, при ухудшении видимости до 1 км и менее - туман. В сухую погоду видимость может ухудшаться дымом, пылью или мглою.
Явления - указаны атмосферные явления, наблюдавшиеся в срок или в последний час перед сроком; фигурными скобками обозначены явления, наблюдавшиеся между сроками (за 1-3 часа до срока); квадратными скобками обозначены град или гололедные отложения с указанием их диаметра в мм.
Облачность - указаны через наклонную черту общая и нижняя облачность в баллах и высота нижней границы облаков в метрах; квадратными скобками обозначены формы облаков: Ci - перистые, Cs - перисто-слоистые, Cc - перисто-кучевые, Ac - высококучевые, As - высокослоистые, Sc - слоисто-кучевые, Ns - слоисто-дождевые, Cu - кучевые, Cb - кучево-дождевые. Подробнее классификацию облаков см. в Атласе облаков (PDF).
T - Температура воздуха - температура, измеренная на высоте 2 м над землей.
Td - Температура точки росы - температура, при понижении до которой содержащийся в воздухе водяной пар достигнет насыщения.
f - Относительная влажность воздуха - влажноcть воздуха, измеренная на высоте 2 м над землей.
Te - Эффективная температура - температура, которую ощущает одетый по сезону человек в тени. Характеристика душности погоды. При расчете учитывается влияние влажности воздуха и скорости ветра на теплоощущения человека.
Tes - Эффективная температура на солнце - температура, которую ощущает человек, с поправкой на солнечный нагрев. Характеристика знойности погоды. Зависит от высоты солнца над горизонтом, облачности и скорости ветра. Ночью, в пасмурную погоду, а также при ветре 12 м/с и более поправка равна нулю.
P - Атмосферное давление - приведенное к уровню моря атмосферное давление.
Po - Атмосферное давление - измеренное на уровне метеостанции атмосферное давление.
Tmin - Минимальная температура - минимум температуры воздуха на высоте 2 м над землей.
Tmax - Максимальная температура - максимум температуры воздуха на высоте 2 м над землей.
R - Количество осадков - Количество выпавших осадков за период времени, мм. При наведении курсора мыши на число - период времени, за который выпало указанное количество осадков.
R24 - Количество осадков - Количество выпавших осадков за 24 часа, мм.
S - Снежный покров - Высота снежного покрова, см. При наведении курсора мыши на число - состояние снежного покрова и степень покрытия местности в баллах.